Cairo, IL

2:03 AM CST on February 27, 2017 (GMT -0600)
Cairo Regional

Weather History for KCIR - October, 2013

Change the Weather History Date:

Saturday, October 12, 2013

  Actual Average Record
Temperature  
Mean Temperature 65 °F -  
Max Temperature 75 °F 73 °F 89 °F (1975)
Min Temperature 56 °F 53 °F 34 °F (1988)
Growing Degree Days 15 (Base 50)    
Moisture  
Dew Point 61 °F    
Average Humidity 88    
Maximum Humidity 95    
Minimum Humidity 74    
Precipitation  
Precipitation 0.01 in - - ()
Sea Level Pressure  
Sea Level Pressure 30.06 in    
Wind  
Wind Speed 1 mph (South)    
Max Wind Speed 7 mph    
Max Gust Speed -    
Visibility 5 miles    
Events Fog , Rain , Thunderstorm    
Averages and records for this station are not official NWS values.
T = Trace of Precipitation, MM = Missing Value Source: NWS Daily Summary

Daily Weather History Graph

Daily Weather History Graph

Search for Another Location

Airport or City:

Trip Planner

Search our weather history database for the weather conditions in past years. The results will help you decide how hot, cold, wet, or windy it might be!

Date:

Astronomy

Oct. 12, 2013 Rise Set
Actual Time 7:02 AM CDT 6:23 PM CDT
Civil Twilight 6:35 AM CDT 6:49 PM CDT
Nautical Twilight 6:05 AM CDT 7:20 PM CDT
Astronomical Twilight 5:35 AM CDT 7:50 PM CDT
Moon 2:25 PM CDT (10/12) 12:14 AM CDT (10/12)
Length of Visible Light 12h 13m
Length of Day
11h 21m
First Quarter, 59% of the Moon is Illuminated
Oct 12
First Quarter
Oct 18
Full
Oct 26
Last Quarter
Nov 3
New
Nov 9
First Quarter

Hourly Weather History & Observations

Time (CDT) Temp. Dew Point Humidity Pressure Visibility Wind Dir Wind Speed Gust Speed Precip Events Conditions
12:15 AM 60.8 °F 57.7 °F 90% 30.00 in 7.0 mi Calm Calm - N/A   Clear
12:35 AM 59.4 °F 56.3 °F 90% 30.00 in 7.0 mi Calm Calm - N/A   Clear
12:55 AM 59.7 °F 57.0 °F 91% 30.00 in 10.0 mi Calm Calm - N/A   Clear
1:15 AM 58.8 °F 56.1 °F 91% 30.01 in 7.0 mi Calm Calm - N/A   Clear
1:35 AM 58.6 °F 55.9 °F 91% 30.01 in 7.0 mi Calm Calm - N/A   Scattered Clouds
1:55 AM 58.6 °F 56.3 °F 92% 30.01 in 7.0 mi Calm Calm - N/A   Mostly Cloudy
2:15 AM 59.9 °F 57.2 °F 91% 30.01 in 7.0 mi Calm Calm - N/A   Scattered Clouds
2:35 AM 58.8 °F 56.3 °F 91% 30.01 in 7.0 mi Calm Calm - N/A   Scattered Clouds
2:55 AM 59.0 °F 56.5 °F 91% 30.00 in 5.0 mi Calm Calm - N/A   Scattered Clouds
3:15 AM 58.8 °F 56.5 °F 92% 30.00 in 5.0 mi Calm Calm - N/A   Scattered Clouds
3:35 AM 58.5 °F 56.3 °F 93% 30.00 in 5.0 mi Calm Calm - N/A   Mostly Cloudy
3:55 AM 59.0 °F 57.0 °F 93% 30.00 in 4.0 mi Calm Calm - N/A   Scattered Clouds
4:15 AM 57.9 °F 55.6 °F 92% 30.00 in 4.0 mi Calm Calm - N/A   Clear
4:35 AM 58.3 °F 56.3 °F 93% 30.00 in 1.2 mi Calm Calm - N/A   Mist
4:55 AM 58.3 °F 56.5 °F 94% 30.00 in 2.0 mi Calm Calm - 0.01 in   Clear
5:15 AM 57.6 °F 55.6 °F 93% 30.01 in 1.2 mi Calm Calm - N/A   Mist
5:35 AM 56.8 °F 55.0 °F 94% 30.01 in 4.0 mi Calm Calm - N/A   Clear
5:55 AM 57.4 °F 55.6 °F 94% 30.01 in 3.0 mi Calm Calm - N/A   Clear
6:15 AM 56.3 °F 54.5 °F 94% 30.02 in 1.2 mi NNW 4.6 mph - N/A   Mist
6:35 AM 57.2 °F 55.4 °F 94% 30.02 in 4.0 mi Calm Calm - N/A   Clear
6:55 AM 57.0 °F 55.2 °F 94% 30.02 in 5.0 mi Calm Calm - N/A   Clear
7:15 AM 57.2 °F 55.6 °F 94% 30.02 in 0.2 mi Calm Calm - N/A Fog Fog
7:35 AM 56.8 °F 55.2 °F 94% 30.02 in 1.8 mi Calm Calm - N/A   Mist
7:55 AM 59.5 °F 57.9 °F 94% 30.02 in 4.0 mi Calm Calm - N/A   Clear
8:15 AM 63.3 °F 61.7 °F 94% 30.03 in 7.0 mi Calm Calm - N/A   Clear
8:35 AM 66.7 °F 64.8 °F 93% 30.04 in 10.0 mi Calm Calm - N/A   Mostly Cloudy
8:55 AM 67.5 °F 64.6 °F 90% 30.04 in 10.0 mi Calm Calm - N/A   Mostly Cloudy
9:15 AM 68.4 °F 64.6 °F 88% 30.05 in 10.0 mi Calm Calm - N/A   Clear
9:35 AM 69.3 °F 64.6 °F 85% 30.05 in 10.0 mi Calm Calm - N/A   Clear
9:55 AM 70.2 °F 64.4 °F 82% 30.05 in 10.0 mi SSE 4.6 mph - N/A Thunderstorm Clear
10:15 AM 70.5 °F 63.5 °F 78% 30.06 in 10.0 mi South 3.5 mph - N/A   Clear
10:35 AM 70.7 °F 63.7 °F 78% 30.07 in 10.0 mi SE 3.5 mph - N/A Thunderstorm Mostly Cloudy
10:55 AM 71.6 °F 63.7 °F 76% 30.09 in 10.0 mi Calm Calm - N/A Thunderstorm Thunderstorm
11:15 AM 69.8 °F 63.0 °F 79% 30.11 in 10.0 mi NW 6.9 mph - N/A Thunderstorm Unknown
11:35 AM 67.6 °F 62.6 °F 84% 30.11 in 1.2 mi Calm Calm - N/A Rain , Thunderstorm Heavy Thunderstorms and Rain
11:55 AM 67.1 °F 63.0 °F 87% 30.10 in 1.2 mi Calm Calm - N/A Rain , Thunderstorm Heavy Thunderstorms and Rain
12:15 PM 67.6 °F 64.0 °F 88% 30.10 in 2.0 mi East 3.5 mph - N/A Rain Rain
12:35 PM 68.9 °F 65.5 °F 89% 30.08 in 3.0 mi ESE 5.8 mph - N/A Thunderstorm Unknown
12:55 PM 69.1 °F 66.0 °F 90% 30.06 in 4.0 mi East 6.9 mph - N/A   Scattered Clouds
1:15 PM 69.3 °F 66.0 °F 89% 30.06 in 5.0 mi SE 4.6 mph - N/A   Mostly Cloudy
1:35 PM 70.0 °F 66.7 °F 89% 30.06 in 7.0 mi SSE 5.8 mph - N/A   Scattered Clouds
1:55 PM 70.2 °F 66.6 °F 88% 30.05 in 7.0 mi SSE 5.8 mph - N/A   Scattered Clouds
2:15 PM 70.7 °F 66.7 °F 87% 30.05 in 7.0 mi SSE 4.6 mph - N/A   Scattered Clouds
2:35 PM 71.2 °F 66.6 °F 85% 30.05 in 7.0 mi South 4.6 mph - N/A   Clear
2:55 PM 72.0 °F 66.9 °F 84% 30.05 in 10.0 mi South 3.5 mph - N/A   Scattered Clouds
3:15 PM 72.5 °F 67.1 °F 83% 30.05 in 10.0 mi SSW 3.5 mph - N/A   Mostly Cloudy
3:35 PM 74.1 °F 67.1 °F 79% 30.05 in 10.0 mi SW 4.6 mph - N/A   Mostly Cloudy
3:55 PM 73.8 °F 66.4 °F 78% 30.05 in 10.0 mi SW 3.5 mph - N/A   Mostly Cloudy
4:15 PM 74.5 °F 65.7 °F 74% 30.05 in 10.0 mi West 4.6 mph - N/A   Mostly Cloudy
4:35 PM 73.0 °F 65.5 °F 77% 30.05 in 10.0 mi Calm Calm - N/A   Overcast
4:55 PM 72.5 °F 65.5 °F 79% 30.05 in 10.0 mi WNW 3.5 mph - N/A   Overcast
5:15 PM 71.6 °F 65.3 °F 80% 30.06 in 10.0 mi West 4.6 mph - N/A   Overcast
5:35 PM 71.1 °F 64.9 °F 81% 30.06 in 10.0 mi West 3.5 mph - N/A   Overcast
5:55 PM 70.9 °F 64.9 °F 81% 30.07 in 10.0 mi Calm Calm - N/A   Overcast
6:15 PM 70.7 °F 64.8 °F 81% 30.07 in 7.0 mi WNW 3.5 mph - N/A   Overcast
6:35 PM 70.2 °F 64.9 °F 83% 30.07 in 10.0 mi Calm Calm - N/A   Overcast
6:55 PM 70.0 °F 64.9 °F 84% 30.07 in 7.0 mi Calm Calm - N/A   Overcast
7:15 PM 69.3 °F 64.4 °F 84% 30.08 in 7.0 mi Calm Calm - N/A   Scattered Clouds
7:35 PM 66.2 °F 62.1 °F 86% 30.09 in 1.2 mi Calm Calm - N/A   Mist
7:55 PM 65.5 °F 61.9 °F 88% 30.10 in 0.2 mi Calm Calm - N/A Fog Fog
8:15 PM 64.8 °F 61.7 °F 90% 30.11 in 0.2 mi Calm Calm - N/A Fog Fog
8:35 PM 64.6 °F 61.9 °F 91% 30.11 in 0.2 mi Calm Calm - N/A Fog Fog
8:55 PM 63.3 °F 60.8 °F 91% 30.12 in 0.2 mi Calm Calm - N/A Fog Fog
9:15 PM 63.1 °F 60.8 °F 92% 30.13 in 0.2 mi Calm Calm - N/A Fog Fog
9:35 PM 61.2 °F 59.0 °F 93% 30.14 in 0.2 mi Calm Calm - N/A Fog Fog
9:55 PM 61.0 °F 59.0 °F 93% 30.14 in 0.2 mi Calm Calm - N/A Fog Fog
10:15 PM 62.2 °F 60.3 °F 93% 30.15 in 0.2 mi Calm Calm - N/A Fog Fog
10:35 PM 60.8 °F 58.8 °F 93% 30.14 in 0.2 mi Calm Calm - N/A Fog Fog
10:55 PM 60.3 °F 58.5 °F 94% 30.14 in 0.2 mi Calm Calm - N/A Fog Fog
11:15 PM 60.1 °F 58.3 °F 94% 30.15 in 0.2 mi Calm Calm - N/A Fog Fog
11:35 PM 59.9 °F 58.3 °F 94% 30.15 in 0.2 mi Calm Calm - N/A Fog Fog
11:55 PM 60.3 °F 58.8 °F 95% 30.16 in 0.2 mi Calm Calm - N/A Fog Fog